Check out our new BloomSky Weather System.

Active alerts

Galveston, TX
  Details for Galveston, TX Coastal Flood Advisory  +1 additional alert


Thunder radar  blitzortung!


Rain radar more information rain snow radar


Visit our other weather sites:

Template documentation
and downloads

And another site



Weather Underground History page Text

Daily Summary for April 25, 2017 Units:  English    Metric   Both
« Previous Day
Next Day »
Daily Weekly Monthly Yearly Custom
  High: Low: Average:
Temperature: TemperatureF °F 63.7 °F 74.2 °F
Dew Point: DewpointF °F 57.6 °F 66.7 °F
Humidity: Humidity % 65 % 78 %
Wind Speed: WindSpeedMPH mph 0.0 mph 6 mph
Wind Gust: WindSpeedGustMPH mph - -
Wind:- - SSE
Pressure: PressureIn in 29.55 in -
Precipitation: 0.00 in    
Historical Graphs
 
 
Tabular Data for April 25, 2017
Time Temperature Dew Point Pressure Wind Wind Speed Wind Gust Humidity Rainfall Rate (Hourly)
TemperatureF °F DewpointF °F PressureIn in Calm     Humidity % HourlyPrecipIn in
00:02 66.6 °F 57.6 °F 29.75 in South 4.0 mph 6.0 mph 73 % 0.00 in
00:07 66.6 °F 57.6 °F 29.75 in South 3.0 mph 7.0 mph 73 % 0.00 in
00:12 66.6 °F 58.1 °F 29.75 in SE 5.0 mph 7.0 mph 74 % 0.00 in
00:17 66.6 °F 58.1 °F 29.75 in SSW 4.0 mph 7.0 mph 74 % 0.00 in
00:22 66.6 °F 58.1 °F 29.75 in SSE 4.0 mph 7.0 mph 74 % 0.00 in
00:27 66.4 °F 57.9 °F 29.75 in SSE 1.0 mph 7.0 mph 74 % 0.00 in
00:32 66.2 °F 58.1 °F 29.75 in SSE 1.0 mph 7.0 mph 75 % 0.00 in
00:37 66.0 °F 57.9 °F 29.75 in South 1.0 mph 5.0 mph 75 % 0.00 in
00:42 66.0 °F 57.9 °F 29.75 in SSE 1.0 mph 5.0 mph 75 % 0.00 in
00:47 65.8 °F 58.1 °F 29.75 in South 2.0 mph 5.0 mph 76 % 0.00 in
00:52 65.7 °F 57.9 °F 29.74 in SSE 5.0 mph 6.0 mph 76 % 0.00 in
00:57 65.7 °F 58.3 °F 29.74 in South 2.0 mph 6.0 mph 77 % 0.00 in
01:07 65.7 °F 58.3 °F 29.74 in SSE 1.0 mph 7.0 mph 77 % 0.00 in
01:12 65.7 °F 58.3 °F 29.74 in SSE 6.0 mph 7.0 mph 77 % 0.00 in
01:17 65.7 °F 58.6 °F 29.74 in SSW 5.0 mph 6.0 mph 78 % 0.00 in
01:22 65.8 °F 58.8 °F 29.74 in SE 3.0 mph 8.0 mph 78 % 0.00 in
01:23 65.8 °F 58.8 °F 29.74 in SSE 3.0 mph 8.0 mph 78 % 0.00 in
01:28 65.8 °F 58.8 °F 29.73 in South 5.0 mph 8.0 mph 78 % 0.00 in
01:33 65.8 °F 58.8 °F 29.73 in South 4.0 mph 8.0 mph 78 % 0.00 in
01:38 65.8 °F 59.2 °F 29.73 in SE 6.0 mph 7.0 mph 79 % 0.00 in
01:43 65.8 °F 59.2 °F 29.73 in East 4.0 mph 8.0 mph 79 % 0.00 in
01:48 65.8 °F 59.2 °F 29.73 in SSW 6.0 mph 8.0 mph 79 % 0.00 in
01:53 65.8 °F 59.2 °F 29.73 in South 5.0 mph 9.0 mph 79 % 0.00 in
01:58 65.8 °F 59.2 °F 29.73 in SSE 4.0 mph 9.0 mph 79 % 0.00 in
02:03 65.8 °F 59.2 °F 29.73 in SE 2.0 mph 9.0 mph 79 % 0.00 in
02:08 65.8 °F 59.2 °F 29.73 in SE 2.0 mph 8.0 mph 79 % 0.00 in
02:13 65.7 °F 59.4 °F 29.72 in SSE 2.0 mph 8.0 mph 80 % 0.00 in
02:18 65.7 °F 59.4 °F 29.72 in SSE 3.0 mph 8.0 mph 80 % 0.00 in
02:23 65.7 °F 59.7 °F 29.72 in SSE 3.0 mph 8.0 mph 81 % 0.00 in
02:28 65.5 °F 59.5 °F 29.72 in South 4.0 mph 6.0 mph 81 % 0.00 in
02:33 65.7 °F 59.7 °F 29.72 in South 2.0 mph 7.0 mph 81 % 0.00 in
02:38 65.5 °F 59.5 °F 29.72 in SE 3.0 mph 7.0 mph 81 % 0.00 in
02:43 65.5 °F 59.9 °F 29.71 in SSE 3.0 mph 7.0 mph 82 % 0.00 in
02:48 65.5 °F 59.9 °F 29.71 in South 4.0 mph 7.0 mph 82 % 0.00 in
02:53 65.5 °F 59.9 °F 29.70 in SSW 3.0 mph 6.0 mph 82 % 0.00 in
02:58 65.5 °F 59.9 °F 29.70 in SW 4.0 mph 7.0 mph 82 % 0.00 in
03:03 65.3 °F 60.1 °F 29.70 in South 1.0 mph 7.0 mph 83 % 0.00 in
03:08 65.3 °F 60.1 °F 29.69 in SSE 2.0 mph 7.0 mph 83 % 0.00 in
03:13 65.1 °F 59.9 °F 29.69 in South 3.0 mph 6.0 mph 83 % 0.00 in
03:18 65.1 °F 59.9 °F 29.69 in SE 4.0 mph 6.0 mph 83 % 0.00 in
03:23 65.3 °F 60.3 °F 29.68 in SSE 2.0 mph 6.0 mph 84 % 0.00 in
03:28 65.1 °F 60.1 °F 29.68 in ESE 5.0 mph 6.0 mph 84 % 0.00 in
03:33 65.1 °F 60.1 °F 29.68 in SSE 1.0 mph 6.0 mph 84 % 0.00 in
03:38 65.1 °F 60.4 °F 29.68 in SSE 2.0 mph 6.0 mph 85 % 0.00 in
03:43 65.1 °F 60.4 °F 29.68 in SE 3.0 mph 6.0 mph 85 % 0.00 in
03:48 65.1 °F 60.4 °F 29.68 in South 4.0 mph 6.0 mph 85 % 0.00 in
03:53 65.1 °F 60.4 °F 29.68 in ESE 3.0 mph 7.0 mph 85 % 0.00 in
03:58 65.1 °F 60.4 °F 29.68 in SE 3.0 mph 7.0 mph 85 % 0.00 in
04:03 65.1 °F 60.4 °F 29.68 in SE 3.0 mph 7.0 mph 85 % 0.00 in
04:08 65.1 °F 60.4 °F 29.68 in SSW 2.0 mph 7.0 mph 85 % 0.00 in
04:13 64.9 °F 60.6 °F 29.68 in SE 1.0 mph 7.0 mph 86 % 0.00 in
04:18 64.9 °F 60.6 °F 29.68 in SSW 2.0 mph 6.0 mph 86 % 0.00 in
04:23 64.9 °F 60.6 °F 29.68 in SE 2.0 mph 3.0 mph 86 % 0.00 in
04:28 64.9 °F 60.6 °F 29.68 in SSE 2.0 mph 4.0 mph 86 % 0.00 in
04:33 64.9 °F 60.6 °F 29.68 in SSE 1.0 mph 4.0 mph 86 % 0.00 in
04:38 64.9 °F 60.6 °F 29.67 in South 1.0 mph 5.0 mph 86 % 0.00 in
04:43 64.9 °F 61.0 °F 29.67 in SSE 1.0 mph 5.0 mph 87 % 0.00 in
04:48 64.8 °F 60.8 °F 29.67 in South 3.0 mph 5.0 mph 87 % 0.00 in
04:53 64.8 °F 60.8 °F 29.67 in SE 1.0 mph 5.0 mph 87 % 0.00 in
04:55 64.8 °F 60.8 °F 29.67 in SSE 1.0 mph 5.0 mph 87 % 0.00 in
05:00 64.8 °F 60.8 °F 29.67 in SE 2.0 mph 5.0 mph 87 % 0.00 in
05:05 64.8 °F 60.8 °F 29.67 in SSE 4.0 mph 5.0 mph 87 % 0.00 in
05:10 64.8 °F 61.2 °F 29.67 in SE 3.0 mph 6.0 mph 88 % 0.00 in
05:15 64.8 °F 60.8 °F 29.67 in ESE 2.0 mph 6.0 mph 87 % 0.00 in
05:20 64.8 °F 61.2 °F 29.67 in Calm   6.0 mph 88 % 0.00 in
05:25 64.8 °F 61.2 °F 29.67 in ESE 1.0 mph 4.0 mph 88 % 0.00 in
05:26 64.6 °F 61.0 °F 29.67 in ESE 2.0 mph 4.0 mph 88 % 0.00 in
05:31 64.6 °F 61.0 °F 29.67 in Calm   4.0 mph 88 % 0.00 in
05:36 64.4 °F 60.8 °F 29.67 in East 1.0 mph 3.0 mph 88 % 0.00 in
05:41 64.2 °F 60.6 °F 29.67 in ESE 1.0 mph 3.0 mph 88 % 0.00 in
05:46 64.2 °F 60.6 °F 29.67 in SE 1.0 mph 3.0 mph 88 % 0.00 in
05:51 64.0 °F 60.4 °F 29.67 in Calm   3.0 mph 88 % 0.00 in
05:56 63.9 °F 60.6 °F 29.67 in SE 1.0 mph 3.0 mph 89 % 0.00 in
06:01 63.9 °F 60.6 °F 29.67 in Calm   3.0 mph 89 % 0.00 in
06:06 63.7 °F 60.4 °F 29.67 in SW 2.0 mph 3.0 mph 89 % 0.00 in
06:11 63.7 °F 60.6 °F 29.67 in Calm   3.0 mph 90 % 0.00 in
06:16 63.7 °F 60.6 °F 29.67 in ESE 1.0 mph 3.0 mph 90 % 0.00 in
06:21 63.7 °F 60.6 °F 29.67 in ESE 1.0 mph 3.0 mph 90 % 0.00 in
06:26 63.9 °F 60.8 °F 29.67 in SE 1.0 mph 3.0 mph 90 % 0.00 in
06:31 63.9 °F 60.8 °F 29.67 in SE 2.0 mph 3.0 mph 90 % 0.00 in
06:36 63.9 °F 60.8 °F 29.66 in ESE 1.0 mph 3.0 mph 90 % 0.00 in
06:41 63.9 °F 60.8 °F 29.67 in Calm   3.0 mph 90 % 0.00 in
06:46 63.7 °F 60.6 °F 29.66 in Calm   3.0 mph 90 % 0.00 in
06:51 63.7 °F 60.6 °F 29.66 in SSE 1.0 mph 2.0 mph 90 % 0.00 in
06:56 63.7 °F 61.0 °F 29.67 in South 2.0 mph 2.0 mph 91 % 0.00 in
07:01 63.7 °F 61.0 °F 29.66 in South 1.0 mph 3.0 mph 91 % 0.00 in
07:06 63.7 °F 61.3 °F 29.67 in SSE 2.0 mph 3.0 mph 92 % 0.00 in
07:11 63.9 °F 61.5 °F 29.67 in SE 2.0 mph 3.0 mph 92 % 0.00 in
07:16 64.0 °F 61.7 °F 29.67 in SSW 2.0 mph 5.0 mph 92 % 0.00 in
07:21 64.2 °F 61.9 °F 29.67 in South 2.0 mph 5.0 mph 92 % 0.00 in
07:27 64.6 °F 62.2 °F 29.67 in SE 1.0 mph 5.0 mph 92 % 0.00 in
07:32 64.9 °F 62.6 °F 29.68 in SSE 2.0 mph 4.0 mph 92 % 0.00 in
07:37 65.5 °F 63.1 °F 29.68 in SE 2.0 mph 4.0 mph 92 % 0.00 in
07:42 66.0 °F 63.3 °F 29.67 in SSE 2.0 mph 5.0 mph 91 % 0.00 in
07:47 66.7 °F 63.7 °F 29.67 in South 6.0 mph 6.0 mph 90 % 0.00 in
07:52 67.3 °F 63.9 °F 29.67 in SE 4.0 mph 7.0 mph 89 % 0.00 in
07:57 67.8 °F 64.4 °F 29.67 in SE 6.0 mph 7.0 mph 89 % 0.00 in
08:02 68.5 °F 64.8 °F 29.67 in SSE 2.0 mph 7.0 mph 88 % 0.00 in
08:07 69.1 °F 65.1 °F 29.67 in SSE 2.0 mph 7.0 mph 87 % 0.00 in
08:12 69.8 °F 65.8 °F 29.67 in SSW 2.0 mph 7.0 mph 87 % 0.00 in
08:17 70.3 °F 65.7 °F 29.67 in SSE 5.0 mph 7.0 mph 85 % 0.00 in
08:22 71.1 °F 66.0 °F 29.68 in SE 4.0 mph 9.0 mph 84 % 0.00 in
08:27 71.4 °F 66.4 °F 29.67 in SE 3.0 mph 10.0 mph 84 % 0.00 in
08:32 72.0 °F 66.6 °F 29.67 in South 9.0 mph 10.0 mph 83 % 0.00 in
08:37 72.3 °F 66.6 °F 29.67 in SSE 4.0 mph 11.0 mph 82 % 0.00 in
08:42 72.9 °F 66.7 °F 29.67 in SSW 7.0 mph 13.0 mph 81 % 0.00 in
08:47 73.2 °F 66.7 °F 29.68 in SSE 5.0 mph 13.0 mph 80 % 0.00 in
08:52 73.6 °F 66.7 °F 29.68 in South 6.0 mph 13.0 mph 79 % 0.00 in
08:57 73.8 °F 66.4 °F 29.68 in SSW 5.0 mph 12.0 mph 78 % 0.00 in
09:02 73.9 °F 67.1 °F 29.68 in SSE 6.0 mph 14.0 mph 79 % 0.00 in
09:07 74.1 °F 66.4 °F 29.68 in SSW 5.0 mph 14.0 mph 77 % 0.00 in
09:12 74.3 °F 66.9 °F 29.68 in South 4.0 mph 14.0 mph 78 % 0.00 in
09:17 74.5 °F 66.7 °F 29.68 in South 11.0 mph 14.0 mph 77 % 0.00 in
09:22 74.5 °F 67.1 °F 29.68 in SSE 7.0 mph 15.0 mph 78 % 0.00 in
09:27 74.7 °F 66.9 °F 29.67 in SE 11.0 mph 15.0 mph 77 % 0.00 in
09:32 74.7 °F 67.3 °F 29.68 in SSE 9.0 mph 18.0 mph 78 % 0.00 in
09:37 74.8 °F 67.5 °F 29.68 in South 9.0 mph 18.0 mph 78 % 0.00 in
09:42 74.8 °F 67.5 °F 29.67 in SSE 6.0 mph 18.0 mph 78 % 0.00 in
09:47 75.0 °F 67.3 °F 29.68 in SSE 3.0 mph 16.0 mph 77 % 0.00 in
09:52 75.6 °F 67.8 °F 29.68 in SSE 10.0 mph 16.0 mph 77 % 0.00 in
09:57 75.4 °F 67.3 °F 29.68 in SSE 10.0 mph 19.0 mph 76 % 0.00 in
10:02 75.7 °F 67.6 °F 29.68 in SE 6.0 mph 19.0 mph 76 % 0.00 in
10:07 75.7 °F 67.3 °F 29.68 in SSE 8.0 mph 19.0 mph 75 % 0.00 in
10:12 75.9 °F 67.8 °F 29.67 in SE 15.0 mph 18.0 mph 76 % 0.00 in
10:17 76.3 °F 67.8 °F 29.67 in South 15.0 mph 16.0 mph 75 % 0.00 in
10:22 76.3 °F 67.8 °F 29.67 in SE 11.0 mph 18.0 mph 75 % 0.00 in
10:27 76.8 °F 68.7 °F 29.67 in ESE 7.0 mph 18.0 mph 76 % 0.00 in
10:32 77.0 °F 68.0 °F 29.68 in SSW 10.0 mph 18.0 mph 74 % 0.00 in
10:37 77.2 °F 68.2 °F 29.68 in SE 6.0 mph 18.0 mph 74 % 0.00 in
10:42 77.2 °F 68.2 °F 29.68 in SE 3.0 mph 18.0 mph 74 % 0.00 in
10:47 77.4 °F 68.4 °F 29.68 in SSE 14.0 mph 17.0 mph 74 % 0.00 in
10:52 77.9 °F 68.9 °F 29.68 in SW 14.0 mph 15.0 mph 74 % 0.00 in
10:57 78.4 °F 69.1 °F 29.68 in SSE 5.0 mph 15.0 mph 73 % 0.00 in
11:02 78.4 °F 69.1 °F 29.68 in South 7.0 mph 15.0 mph 73 % 0.00 in
11:07 78.4 °F 69.1 °F 29.68 in South 10.0 mph 16.0 mph 73 % 0.00 in
11:12 78.3 °F 68.9 °F 29.68 in SSW 6.0 mph 16.0 mph 73 % 0.00 in
11:17 78.3 °F 68.9 °F 29.67 in ESE 6.0 mph 16.0 mph 73 % 0.00 in
11:22 78.4 °F 69.1 °F 29.68 in SSW 10.0 mph 13.0 mph 73 % 0.00 in
11:27 78.8 °F 69.4 °F 29.68 in SW 4.0 mph 15.0 mph 73 % 0.00 in
11:32 78.8 °F 69.1 °F 29.68 in SW 7.0 mph 15.0 mph 72 % 0.00 in
11:37 78.8 °F 69.1 °F 29.68 in South 12.0 mph 15.0 mph 72 % 0.00 in
11:42 79.0 °F 69.3 °F 29.67 in SSW 14.0 mph 16.0 mph 72 % 0.00 in
11:47 79.2 °F 69.3 °F 29.67 in WSW 7.0 mph 17.0 mph 72 % 0.00 in
11:52 79.9 °F 70.5 °F 29.67 in SSW 5.0 mph 17.0 mph 73 % 0.00 in
11:57 80.4 °F 70.2 °F 29.67 in East 5.0 mph 17.0 mph 71 % 0.00 in
12:02 80.8 °F 69.6 °F 29.67 in SSE 3.0 mph 15.0 mph 69 % 0.00 in
12:07 81.0 °F 69.8 °F 29.67 in SE 17.0 mph 17.0 mph 69 % 0.00 in
12:12 81.0 °F 69.8 °F 29.67 in SSE 4.0 mph 18.0 mph 69 % 0.00 in
12:18 80.8 °F 69.6 °F 29.67 in SSE 12.0 mph 18.0 mph 69 % 0.00 in
12:23 80.4 °F 69.8 °F 29.67 in South 11.0 mph 18.0 mph 70 % 0.00 in
12:28 80.4 °F 70.2 °F 29.67 in South 3.0 mph 16.0 mph 71 % 0.00 in
12:33 80.6 °F 70.0 °F 29.67 in South 8.0 mph 16.0 mph 70 % 0.00 in
12:38 80.8 °F 70.2 °F 29.66 in SSE 7.0 mph 15.0 mph 70 % 0.00 in
12:43 80.8 °F 70.2 °F 29.66 in SW 10.0 mph 14.0 mph 70 % 0.00 in
12:48 81.0 °F 70.2 °F 29.66 in SSE 8.0 mph 15.0 mph 70 % 0.00 in
12:53 81.1 °F 70.3 °F 29.66 in SSE 6.0 mph 15.0 mph 70 % 0.00 in
12:58 81.3 °F 70.2 °F 29.65 in South 9.0 mph 15.0 mph 69 % 0.00 in
13:03 81.7 °F 70.5 °F 29.65 in SE 5.0 mph 14.0 mph 69 % 0.00 in
13:08 81.9 °F 70.7 °F 29.65 in SSE 6.0 mph 14.0 mph 69 % 0.00 in
13:13 82.0 °F 71.8 °F 29.65 in South 8.0 mph 14.0 mph 71 % 0.00 in
13:18 82.8 °F 71.1 °F 29.65 in South 10.0 mph 13.0 mph 68 % 0.00 in
13:23 82.6 °F 70.5 °F 29.65 in South 7.0 mph 12.0 mph 67 % 0.00 in
13:28 82.6 °F 70.5 °F 29.64 in South 9.0 mph 15.0 mph 67 % 0.00 in
13:33 82.8 °F 71.1 °F 29.64 in SSW 8.0 mph 15.0 mph 68 % 0.00 in
13:38 83.1 °F 72.0 °F 29.64 in SSE 9.0 mph 15.0 mph 69 % 0.00 in
13:43 83.5 °F 71.4 °F 29.64 in ESE 9.0 mph 12.0 mph 67 % 0.00 in
13:48 82.9 °F 70.9 °F 29.64 in SSE 5.0 mph 12.0 mph 67 % 0.00 in
13:53 83.5 °F 71.4 °F 29.63 in East 9.0 mph 16.0 mph 67 % 0.00 in
13:58 83.8 °F 71.8 °F 29.63 in SSE 11.0 mph 17.0 mph 67 % 0.00 in
14:03 83.8 °F 71.2 °F 29.62 in SSE 11.0 mph 17.0 mph 66 % 0.00 in
14:08 83.3 °F 71.2 °F 29.62 in SW 9.0 mph 17.0 mph 67 % 0.00 in
14:13 83.1 °F 71.4 °F 29.62 in SE 10.0 mph 14.0 mph 68 % 0.00 in
14:18 83.8 °F 71.8 °F 29.62 in SW 6.0 mph 13.0 mph 67 % 0.00 in
14:23 83.7 °F 71.1 °F 29.62 in SSW 8.0 mph 17.0 mph 66 % 0.00 in
14:28 83.5 °F 71.4 °F 29.62 in SSW 9.0 mph 17.0 mph 67 % 0.00 in
14:33 84.0 °F 72.0 °F 29.61 in South 6.0 mph 17.0 mph 67 % 0.00 in
14:38 84.0 °F 71.1 °F 29.61 in South 11.0 mph 15.0 mph 65 % 0.00 in
14:43 84.2 °F 71.6 °F 29.61 in South 7.0 mph 15.0 mph 66 % 0.00 in
14:48 84.6 °F 71.4 °F 29.60 in SE 11.0 mph 15.0 mph 65 % 0.00 in
14:53 84.4 °F 71.8 °F 29.60 in ESE 3.0 mph 16.0 mph 66 % 0.00 in
14:58 84.7 °F 71.6 °F 29.60 in SE 11.0 mph 16.0 mph 65 % 0.00 in
15:03 84.2 °F 71.2 °F 29.60 in SW 10.0 mph 16.0 mph 65 % 0.00 in
15:08 84.2 °F 71.6 °F 29.60 in SSE 9.0 mph 16.0 mph 66 % 0.00 in
15:13 84.6 °F 71.4 °F 29.60 in South 13.0 mph 16.0 mph 65 % 0.00 in
15:18 84.0 °F 71.4 °F 29.60 in WSW 7.0 mph 18.0 mph 66 % 0.00 in
15:23 83.8 °F 71.8 °F 29.59 in South 8.0 mph 18.0 mph 67 % 0.00 in
15:28 84.2 °F 72.0 °F 29.59 in South 6.0 mph 18.0 mph 67 % 0.00 in
15:33 84.0 °F 71.4 °F 29.59 in South 14.0 mph 14.0 mph 66 % 0.00 in
15:38 83.8 °F 71.2 °F 29.59 in SE 7.0 mph 15.0 mph 66 % 0.00 in
15:43 83.8 °F 71.8 °F 29.59 in South 5.0 mph 15.0 mph 67 % 0.00 in
15:53 84.4 °F 71.2 °F 29.58 in SE 7.0 mph 13.0 mph 65 % 0.00 in
15:58 84.4 °F 72.1 °F 29.58 in SE 8.0 mph 13.0 mph 67 % 0.00 in
16:03 84.0 °F 72.3 °F 29.58 in South 11.0 mph 14.0 mph 68 % 0.00 in
16:08 83.8 °F 71.8 °F 29.57 in SE 9.0 mph 15.0 mph 67 % 0.00 in
16:13 83.8 °F 71.8 °F 29.56 in SE 13.0 mph 15.0 mph 67 % 0.00 in
16:18 84.2 °F 72.0 °F 29.56 in SSW 5.0 mph 17.0 mph 67 % 0.00 in
16:23 84.4 °F 71.8 °F 29.56 in ESE 7.0 mph 19.0 mph 66 % 0.00 in
16:28 84.2 °F 71.6 °F 29.56 in SSE 10.0 mph 19.0 mph 66 % 0.00 in
16:33 84.2 °F 72.0 °F 29.56 in SSE 14.0 mph 19.0 mph 67 % 0.00 in
16:38 83.8 °F 71.8 °F 29.56 in SSE 15.0 mph 18.0 mph 67 % 0.00 in
16:43 83.5 °F 71.4 °F 29.56 in ESE 8.0 mph 19.0 mph 67 % 0.00 in
16:48 83.1 °F 71.1 °F 29.55 in South 10.0 mph 19.0 mph 67 % 0.00 in
16:53 83.1 °F 71.4 °F 29.55 in SSW 9.0 mph 19.0 mph 68 % 0.00 in
16:58 83.7 °F 72.0 °F 29.55 in South 6.0 mph 15.0 mph 68 % 0.00 in
17:03 83.1 °F 71.1 °F 29.55 in SW 9.0 mph 15.0 mph 67 % 0.00 in
17:08 82.8 °F 71.6 °F 29.56 in SE 11.0 mph 16.0 mph 69 % 0.00 in
17:13 82.4 °F 71.6 °F 29.55 in SE 9.0 mph 16.0 mph 70 % 0.00 in
17:18 82.0 °F 70.3 °F 29.55 in South 15.0 mph 17.0 mph 68 % 0.00 in
17:28 81.7 °F 70.9 °F 29.55 in South 8.0 mph 17.0 mph 70 % 0.00 in
17:33 81.7 °F 70.9 °F 29.55 in SSE 4.0 mph 18.0 mph 70 % 0.00 in
17:38 81.9 °F 71.6 °F 29.55 in SSE 8.0 mph 18.0 mph 71 % 0.00 in
17:43 81.7 °F 71.4 °F 29.55 in SE 6.0 mph 20.0 mph 71 % 0.00 in
17:48 81.3 °F 71.1 °F 29.55 in SSW 6.0 mph 20.0 mph 71 % 0.00 in
17:53 81.3 °F 70.5 °F 29.55 in SW 11.0 mph 20.0 mph 70 % 0.00 in
17:58 81.1 °F 70.9 °F 29.55 in SSW 8.0 mph 19.0 mph 71 % 0.00 in
18:03 81.0 °F 70.7 °F 29.55 in SE 7.0 mph 19.0 mph 71 % 0.00 in
18:08 81.1 °F 70.9 °F 29.55 in SSE 9.0 mph 19.0 mph 71 % 0.00 in
18:13 81.0 °F 70.7 °F 29.55 in SSW 8.0 mph 17.0 mph 71 % 0.00 in
18:18 81.0 °F 70.7 °F 29.55 in SE 6.0 mph 18.0 mph 71 % 0.00 in
18:23 80.8 °F 70.5 °F 29.55 in SE 10.0 mph 18.0 mph 71 % 0.00 in
18:28 80.8 °F 70.5 °F 29.55 in ESE 9.0 mph 18.0 mph 71 % 0.00 in
18:33 80.6 °F 70.7 °F 29.55 in South 12.0 mph 17.0 mph 72 % 0.00 in
18:38 80.4 °F 70.5 °F 29.55 in SW 10.0 mph 17.0 mph 72 % 0.00 in
18:43 80.2 °F 71.2 °F 29.55 in ESE 8.0 mph 17.0 mph 74 % 0.00 in
18:48 80.2 °F 71.2 °F 29.55 in SSW 5.0 mph 16.0 mph 74 % 0.00 in
18:53 80.1 °F 71.4 °F 29.55 in ESE 10.0 mph 16.0 mph 75 % 0.00 in
18:58 79.9 °F 71.2 °F 29.55 in SE 12.0 mph 13.0 mph 75 % 0.00 in
19:04 79.9 °F 71.6 °F 29.55 in SE 8.0 mph 18.0 mph 76 % 0.00 in
19:09 79.7 °F 71.4 °F 29.55 in SSW 7.0 mph 18.0 mph 76 % 0.00 in
19:14 79.5 °F 71.2 °F 29.55 in SSE 5.0 mph 18.0 mph 76 % 0.00 in
19:19 79.3 °F 71.4 °F 29.55 in SW 11.0 mph 16.0 mph 77 % 0.00 in
19:24 79.2 °F 71.2 °F 29.55 in ESE 5.0 mph 13.0 mph 77 % 0.00 in
19:29 79.2 °F 71.2 °F 29.55 in SE 6.0 mph 13.0 mph 77 % 0.00 in
19:34 79.0 °F 71.6 °F 29.55 in South 6.0 mph 13.0 mph 78 % 0.00 in
19:39 79.0 °F 71.6 °F 29.55 in SSE 7.0 mph 14.0 mph 78 % 0.00 in
19:44 78.8 °F 71.8 °F 29.55 in SSE 7.0 mph 14.0 mph 79 % 0.00 in
19:49 78.6 °F 71.6 °F 29.55 in SSE 10.0 mph 15.0 mph 79 % 0.00 in
19:54 78.6 °F 71.6 °F 29.55 in SSE 4.0 mph 16.0 mph 79 % 0.00 in
19:59 78.6 °F 72.0 °F 29.55 in SE 4.0 mph 16.0 mph 80 % 0.00 in
20:04 78.4 °F 71.8 °F 29.55 in SSE 12.0 mph 16.0 mph 80 % 0.00 in
20:09 78.4 °F 71.8 °F 29.55 in SE 7.0 mph 15.0 mph 80 % 0.00 in
20:14 78.3 °F 71.6 °F 29.55 in South 6.0 mph 15.0 mph 80 % 0.00 in
20:19 78.1 °F 71.8 °F 29.55 in SSE 8.0 mph 15.0 mph 81 % 0.00 in
20:24 78.1 °F 71.8 °F 29.55 in SE 7.0 mph 15.0 mph 81 % 0.00 in
20:29 78.1 °F 71.8 °F 29.55 in SE 11.0 mph 15.0 mph 81 % 0.00 in
20:34 77.9 °F 71.6 °F 29.55 in SSW 3.0 mph 17.0 mph 81 % 0.00 in
20:39 77.7 °F 71.4 °F 29.55 in SSE 8.0 mph 17.0 mph 81 % 0.00 in
20:44 77.7 °F 71.4 °F 29.55 in SSE 8.0 mph 17.0 mph 81 % 0.00 in
20:49 77.7 °F 71.4 °F 29.56 in ESE 11.0 mph 16.0 mph 81 % 0.00 in
20:54 77.7 °F 71.4 °F 29.56 in SSW 5.0 mph 15.0 mph 81 % 0.00 in
20:59 77.5 °F 71.2 °F 29.56 in SE 6.0 mph 15.0 mph 81 % 0.00 in
21:04 77.5 °F 71.2 °F 29.56 in South 7.0 mph 15.0 mph 81 % 0.00 in
21:09 77.5 °F 71.6 °F 29.57 in South 3.0 mph 14.0 mph 82 % 0.00 in
21:14 77.5 °F 71.6 °F 29.57 in SSW 9.0 mph 14.0 mph 82 % 0.00 in
21:19 77.5 °F 71.6 °F 29.57 in East 6.0 mph 13.0 mph 82 % 0.00 in
21:24 77.5 °F 71.6 °F 29.57 in SE 5.0 mph 13.0 mph 82 % 0.00 in
21:29 77.4 °F 71.8 °F 29.57 in SE 8.0 mph 13.0 mph 83 % 0.00 in
21:34 77.4 °F 71.8 °F 29.56 in SW 6.0 mph 16.0 mph 83 % 0.00 in
21:39 77.4 °F 71.8 °F 29.56 in South 8.0 mph 16.0 mph 83 % 0.00 in
21:44 77.4 °F 71.8 °F 29.56 in SE 10.0 mph 16.0 mph 83 % 0.00 in
21:49 77.4 °F 71.8 °F 29.57 in SE 9.0 mph 16.0 mph 83 % 0.00 in
21:54 77.2 °F 72.0 °F 29.57 in SSE 6.0 mph 16.0 mph 84 % 0.00 in
21:59 77.2 °F 72.0 °F 29.57 in SSE 2.0 mph 16.0 mph 84 % 0.00 in
22:05 77.2 °F 72.0 °F 29.57 in SSE 5.0 mph 15.0 mph 84 % 0.00 in
22:09 77.2 °F 72.0 °F 29.57 in ESE 10.0 mph 13.0 mph 84 % 0.00 in
22:14 77.2 °F 72.0 °F 29.57 in SE 8.0 mph 15.0 mph 84 % 0.00 in
22:24 77.0 °F 71.8 °F 29.57 in East 12.0 mph 15.0 mph 84 % 0.00 in
22:30 77.0 °F 71.8 °F 29.57 in SSE 6.0 mph 21.0 mph 84 % 0.00 in
22:35 77.0 °F 72.1 °F 29.56 in South 10.0 mph 21.0 mph 85 % 0.00 in
22:40 76.8 °F 72.0 °F 29.56 in SSE 11.0 mph 21.0 mph 85 % 0.00 in
22:44 76.8 °F 72.0 °F 29.56 in SSE 8.0 mph 16.0 mph 85 % 0.00 in
22:50 76.8 °F 72.0 °F 29.56 in SE 10.0 mph 16.0 mph 85 % 0.00 in
22:55 76.8 °F 72.0 °F 29.56 in ESE 10.0 mph 16.0 mph 85 % 0.00 in
23:00 76.8 °F 72.0 °F 29.56 in SSW 8.0 mph 15.0 mph 85 % 0.00 in
23:05 76.8 °F 72.0 °F 29.56 in SSE 12.0 mph 19.0 mph 85 % 0.00 in
23:10 76.8 °F 72.0 °F 29.55 in SSW 4.0 mph 19.0 mph 85 % 0.00 in
23:15 76.8 °F 72.0 °F 29.55 in SSE 6.0 mph 19.0 mph 85 % 0.00 in
23:20 76.8 °F 72.0 °F 29.55 in SE 7.0 mph 18.0 mph 85 % 0.00 in
23:25 76.8 °F 72.0 °F 29.55 in ESE 5.0 mph 18.0 mph 85 % 0.00 in
23:30 76.8 °F 72.0 °F 29.56 in SSW 7.0 mph 16.0 mph 85 % 0.00 in
23:35 76.8 °F 72.0 °F 29.57 in SSW 5.0 mph 16.0 mph 85 % 0.00 in
23:40 76.8 °F 72.0 °F 29.57 in SE 4.0 mph 14.0 mph 85 % 0.00 in
23:45 76.8 °F 72.0 °F 29.58 in South 4.0 mph 14.0 mph 85 % 0.00 in
23:50 76.8 °F 72.3 °F 29.58 in SSE 4.0 mph 12.0 mph 86 % 0.00 in
23:55 76.8 °F 72.0 °F 29.58 in South 8.0 mph 12.0 mph 85 % 0.00 in
Spring, Texas: Villages of Bridgestone
Compliments of Weather Underground - 2.75 mb

Script developed by  Jim McMurry - jmcmurry@mwt.net Adapted for the template by  Wim van der Kuil - Leuven-Template.eu

You find our weather info also at:

UK Metoffice

WeatherCloud

Weather Underground

Mid-South Weather Network

AWEKAS

Citizen Weather Observer Program (CWOP)

HAMweather, WeatherForYou, PWS Weather

Equipment we use:

Weather-station
Davis Vantage Vue

Weather-program
Meteohub

Weather-server
Debian 7.9 x86 (Guest)

Provider
DreamHost

Davis Vantage Vue

Meteohub

Debian 7.9 x86 (Guest)

DreamHost